This is the latest recevied weather packets stored in our database for station/object SV9TNF-2. If no packets are shown the sender has not sent any weather packets the latest 1 day(s).
| Time | Temp. | Humidity | Pressure | Rain* | Wind** | Luminosity | Snow |
|---|---|---|---|---|---|---|---|
| 1778074831 | 22.22° C | 59% | 1023 hPa | 0 mm | 3.13 m/s, 76° | - | - |
| 1778074531 | 22.78° C | 59% | 1023 hPa | 0 mm | 1.34 m/s, 90° | - | - |
| 1778071830 | 22.78° C | 50% | 1023 hPa | 0 mm | 3.58 m/s, 82° | - | - |
| 1778071530 | 22.78° C | 50% | 1023 hPa | 0 mm | 3.13 m/s, 80° | - | - |
| 1778068229 | 23.33° C | 42% | 1023.4 hPa | 0 mm | 3.13 m/s, 68° | - | - |
| 1778066428 | 23.33° C | 43% | 1023.4 hPa | 0 mm | 3.13 m/s, 70° | - | - |
| 1778065528 | 23.33° C | 39% | 1023.7 hPa | 56.9 mm | 2.68 m/s, 77° | - | - |
| 1778064928 | 23.33° C | 40% | 1023.7 hPa | 0 mm | 1.79 m/s, 90° | - | - |
| 1778064328 | 23.33° C | 42% | 1023.7 hPa | 0 mm | 3.58 m/s, 76° | - | - |
| 1778063127 | 23.89° C | 38% | 1023.7 hPa | 0 mm | 1.79 m/s, 80° | - | - |
| 1778062827 | 23.33° C | 37% | 1023.7 hPa | 0 mm | 2.68 m/s, 66° | - | - |
| 1778061927 | 23.33° C | 38% | 1023.4 hPa | 0 mm | 4.02 m/s, 86° | - | - |
| 1778061027 | 23.33° C | 41% | 1023.4 hPa | 0 mm | 3.58 m/s, 82° | - | - |
| 1778060426 | 23.33° C | 37% | 1023.4 hPa | 0 mm | 2.24 m/s, 60° | - | - |
| 1778060126 | 22.78° C | 44% | 1023.4 hPa | 0 mm | 3.13 m/s, 65° | - | - |
| 1778059826 | 22.78° C | 47% | 1023.4 hPa | 0 mm | 4.47 m/s, 84° | - | - |
| 1778058926 | 22.22° C | 55% | 1023.4 hPa | 0 mm | 3.13 m/s, 72° | - | - |
| 1778058626 | 22.78° C | 56% | 1023.4 hPa | 0 mm | 3.13 m/s, 63° | - | - |
| 1778058026 | 23.33° C | 52% | 1023.4 hPa | 0 mm | 2.24 m/s, 72° | - | - |
| 1778057425 | 25° C | 45% | 1023.4 hPa | 0 mm | 0.89 m/s, 74° | - | - |
| 1778057125 | 23.33° C | 46% | 1023.4 hPa | 0 mm | 1.79 m/s, 60° | - | - |
| 1778056825 | 23.33° C | 46% | 1023.4 hPa | 0 mm | 0.45 m/s, 79° | - | - |
| 1778056525 | 23.33° C | 45% | 1023.4 hPa | 0 mm | 4.92 m/s, 63° | - | - |
| 1778056225 | 23.89° C | 45% | 1023.4 hPa | 0 mm | 1.34 m/s, 74° | - | - |
| 1778055925 | 23.33° C | 43% | 1023.4 hPa | 0 mm | 0.89 m/s, 57° | - | - |
* Rain latest hour (hover to see other rain measurements)
** Current wind speed in m/s (hover to see current wind gust speed)